Regional Weather Roundup
Issued by NWS

Home | Current Version | Previous Version | Graphics & Text | Print | Product List | Glossary On
Versions: 1 2 3 4 5 6 7 8 9 10 11 12 13 14 15 16 17 18 19 20 21 22 23 24 25 26 27 28 29 30 31 32 33 34 35 36 37 38 39 40 41 42 43 44 45 46 47 48 49 50
171
ASUS43 KLSX 230957
RWRMO

WEATHER SUMMARY FOR MISSOURI
NATIONAL WEATHER SERVICE SPRINGFIELD MO
500 AM CDT MON OCT 23 2017

NOTE: "FAIR" INDICATES FEW OR NO CLOUDS BELOW 12,000 FEET WITH NO
       SIGNIFICANT WEATHER AND/OR OBSTRUCTIONS TO VISIBILITY.
       CURRENT SKY AND/OR WEATHER CONDITIONS ARE NOT AVAILABLE FOR
       CHILLICOTHE AND FARMINGTON.

MOZ001>031-035>038-043-044-053-054-231100-
...NORTHERN AND WESTERN MISSOURI...

CITY           SKY/WX    TMP DP  RH WIND       PRES   REMARKS
KANSAS CTY INT CLEAR     42  39  89 S7        29.96F
LEE`S SUMMIT   CLEAR     47  40  76 S9        29.99F
ST JOSEPH      CLEAR     46  41  82 S6        29.94F
CHILLICOTHE      N/A     43  41  93 CALM      29.98F

$$
MOZ066>068-077>081-088>096-101>105-231100-
...SOUTHWEST MISSOURI...

CITY           SKY/WX    TMP DP  RH WIND       PRES   REMARKS
SPRINGFIELD    CLEAR     44  42  93 SW5       30.01F
JOPLIN         CLEAR     43  43 100 MISG      30.04S

$$
MOZ032>034-039>042-045>050-055>058-069>072-231100-
...CENTRAL MISSOURI...

CITY           SKY/WX    TMP DP  RH WIND       PRES   REMARKS
COLUMBIA       NOT AVBL
JEFFERSON CITY MOCLDY    51  47  86 CALM      29.98S
ROLLA          CLOUDY    50  48  93 W7        29.99R
SEDALIA        CLOUDY    48  44  86 SW6       29.99F
WARRENSBURG    CLEAR     37  37 100 S3        30.00F

$$
MOZ051-052-059>065-231100-
...EAST CENTRAL MISSOURI...

CITY           SKY/WX    TMP DP  RH WIND       PRES   REMARKS
ST LOUIS INTL  CLOUDY    51  50  96 W10       29.93F

$$
MOZ072>076-082>087-097>100-106>115-231100-
...SOUTH CENTRAL AND SOUTHEAST MISSOURI...

CITY           SKY/WX    TMP DP  RH WIND       PRES   REMARKS
CAPE GIRARDEAU CLOUDY    52  51  97 NW9       29.91R
FARMINGTON     CLOUDY    50  46  87 NW9       29.93F
POPLAR BLUFF   CLOUDY    52  51  97 NW5       29.93S
WEST PLAINS    CLOUDY    51  44  77 CALM      29.96F

$$



USA.gov is the U.S. government's official web portal to all federal, state and local government web resources and services.